Location: Freistadt
(48.5112°N, 14.5013°E)
Time: 09:05:42
(UTC+02:00)

NOAA 16 DEB - Pass Details

Date: 27 May 2024
Orbit: 738 x 810 km, 99.0° (Epoch: 16 June)

Event Time Altitude Azimuth Distance (km) Brightness Sun altitude
Rises 03:14:32 0° 133° (SE) 3,324 ? -13.9°
Reaches altitude 10° 03:17:05 10° 124° (SE) 2,393 ? -13.6°
Maximum altitude 03:21:43 32° 63° (ENE) 1,360 ? -13.2°
Drops below altitude 10° 03:26:20 10° 2° (N) 2,382 ? -12.8°
Sets 03:28:51 0° 353° (N) 3,307 ? -12.5°
